www.pogodaiklimat.ru

Погода и климат >> Архив погоды >> Мозамбик >> Панда


ПОГОДА в Панда

  • Прогноз погоды в Панда
  • Монитор погоды в Панда

АРХИВ ПОГОДЫ в Панда

Время (UTC), дата Ветер
(напр.,м/с)
 
Видим.   Явления Облачность Т
(С)
Тd
(С)
f
(%)
Тe
(С)
Тes
(С)
Комфортность P
(гПа)
Po
(гПа)
Тmin
(С)
Tmax
(С)
R
(мм)
R24
(мм)
S
(см)
03 17.08 С 2 30 км ясно +14.6 +13.2 91 +14 +14 1020.5 1002.5
06 17.08 С 3 30 км ясно +17.2 +14.8 86 +17 +21 1022.0 1004.1 +14.0
12 17.08 Ю 7 30 км 4/4 600 м
[Cu med, cong]
+27.8 +15.0 46 +30 +32 жарко 1021.2 1004.0
18 17.08 Ю 8 20 км 9/9 300 м
[Cu Sc]
+21.5 +17.8 79 +26 +26 душно 1023.9 1006.2 +28.6
06 18.08 Ю 3 30 км {морось} 4/4 600 м
[Cu med, cong]
+20.7 +14.8 69 +24 +26 комфорт 1026.0 1008.3 +14.0 0.0
15 18.08 ЮВ 4 30 км 3/3 600 м
[Cu Sc]
+23.1 +11.8 49 +26 +26 жарко 1023.5 1005.9
18 18.08 В 3 30 км ясно +18.9 +12.9 68 +20 +20 1024.0 1006.2 +25.3
03 19.08 ЮВ 3 30 км ясно +15.7 +13.6 87 +15 +15 1021.5 1003.5
06 19.08 ЮВ 3 30 км ясно +17.7 +14.4 81 +18 +21 1022.1 1004.2 +15.5
09 19.08 ЮВ 4 30 км 1/1 600 м
[Cu hum]
+25.6 +13.2 46 +28 +36 жарко 1022.1 1004.7
12 19.08 Ю 2 30 км ясно +28.2 +12.1 37 +29 +39 жарко 1019.5 1002.3
15 19.08 СВ 4 30 км ясно +26.2 +15.0 50 +29 +29 жарко 1018.7 1001.4
18 19.08 В 3 30 км ясно +20.4 +15.5 73 +23 +23 комфорт 1020.0 1002.3 +30.0
03 20.08 ЮЗ 2 30 км 6/6 600 м
[Sc]
+17.0 +16.0 94 +18 +18 1022.9 1005.0
06 20.08 З 2 30 км {морось} 8/8 300 м
[Sc]
+19.0 +18.0 94 +21 +22 комфорт 1024.4 1006.6 +15.7 0.4
09 20.08 Ю 9 30 км {ливн. осадки} 5/5 600 м
[Cu Sc]
+22.8 +17.0 70 +28 +28 душно 1025.5 1007.9
12 20.08 Ю 9 30 км {ливн. осадки} 8/8 600 м
[Cu Sc]
+23.4 +10.8 45 +26 +26 жарко 1024.8 1007.2 0.7
15 20.08 ЮВ 4 30 км 6/6 600 м
[Cu Sc]
+21.6 +11.8 54 +24 +24 комфорт 1024.9 1007.2
18 20.08 ЮВ 3 30 км 4/4 600 м
[Cu Sc]
+18.5 +13.8 74 +19 +19 1026.9 1009.0 +25.0 0.7
03 21.08 ЮВ 2 30 км 5/5 600 м
[Cu Sc]
+16.2 +15.5 96 +16 +16 1027.0 1009.0
06 21.08 ЮВ 3 30 км {ливн. осадки} 4/4 600 м
[Cu Sc]
+18.6 +13.9 74 +19 +21 1027.9 1010.0 +16.0 1
09 21.08 Ю 4 10 км слаб. морось 8/8 300 м
[Cu Sc]
+19.7 +15.3 76 +22 +24 комфорт 1028.8 1010.9
12 21.08 Ю 4 10 км слаб. ливневой дождь 9/9 300 м
[Cu Sc]
+19.4 +16.9 85 +21 +22 комфорт 1028.1 1010.2 2
15 21.08 Ю 3 20 км в посл. час морось {ливн. осадки} 9/9 600 м
[Cu Sc]
+18.2 +16.7 91 +19 +19 1027.8 1009.9
18 21.08 Ю 2 30 км {ливн. осадки} 8/8 600 м
[Cu Sc]
+17.6 +16.6 94 +18 +18 1028.2 1010.2 +22.2 4
03 22.08 Ю 2 10 км слаб. морось 9/9 300 м
[Cu Sc]
+15.4 +12.9 85 +15 +15 1026.8 1008.7
06 22.08 Ю 3 30 км {морось} 1/1 600 м
[Cu hum]
+17.8 +15.9 89 +18 +21 1027.5 1009.6 +14.0 4
09 22.08 В 4 30 км 5/5 600 м
[Cu med, cong]
+22.0 +14.2 61 +25 +30 комфорт 1026.7 1009.0
12 22.08 Ю 4 30 км 8/8 600 м
[Cu Sc]
+22.5 +15.0 63 +26 +28 жарко 1024.6 1007.0
15 22.08 ЮВ 3 30 км 4/4 600 м
[Cu Sc]
+22.0 +13.6 59 +25 +25 комфорт 1024.4 1006.8
18 22.08 ЮВ 2 30 км ясно +18.2 +12.1 68 +19 +19 1025.5 1007.6 +23.6
03 23.08 В 2 30 км 3/3 600 м
[Sc]
+16.6 +13.4 81 +17 +17 1024.2 1006.2
06 23.08 ЮЗ 2 30 км 6/6 600 м
[Cu med, cong]
+18.8 +13.2 70 +20 +22 1025.5 1007.7 +15.7
09 23.08 Ю 5 30 км 8/8 600 м
[Cu Sc]
+22.5 +13.8 58 +26 +27 жарко 1025.5 1007.9
12 23.08 Ю 4 30 км 6/6 600 м
[Cu Sc]
+24.2 +14.1 53 +27 +30 жарко 1023.8 1006.3
15 23.08 ЮВ 4 30 км 6/6 600 м
[Cu med, cong]
+22.6 +15.8 65 +27 +27 душно 1023.9 1006.3

 

Местоположение метеостанции Панда (Мозамбик): широта -24.05 долгота 34.05 высота над уровнем моря 150 м.

В архиве по умолчанию представлена погода в Панда за последнюю неделю. Архивные данные за месяц целиком и за предыдущие месяцы, начиная с января 2011 года, Вы можете получить, выбрав интересующий диапазон дат из раскрывающегося списка и нажав кнопку "Ввод!".


*Определитесь, кто Вы:
робот инопланетянин человек

Внимание! Время в таблицах - всемирное. Для получения местного времени необходимо прибавить поправку, которая равна 2 ч.

Смотрите также архив погоды в соседних городах и на ближайших метеорологических станциях:

Погода в Шаи-Шаи (Мозамбик) (119 км)
Погода в Иньямбане (Мозамбик) (137 км)
Погода в Вувулане (Свазиленд) (220 км)
Погода в Мапуту (Мозамбик) (255 км)
Погода в Виланкуло (Мозамбик) (262 км)
Погода в Скукузе (Южная Африка) (269 км)
Погода в Коматидрааи (Южная Африка) (271 км)
Погода в Пхалаборве (Южная Африка) (294 км)
Погода в Массанджена (Мозамбик) (299 км)
Погода в Хоэдспруите (Южная Африка) (306 км)

Пояснения к столбцам:

Ветер - указаны скорость ветра в м/с - средняя за 10 мин, порывы в срок и между сроками (в фигурных скобках) и направление, откуда дует ветер: С - северный, СВ - северо-восточный, В - восточный, ЮВ - юго-восточный, Ю - южный, ЮЗ - юго-западный, З - западный, СЗ - северо-западный.
Видимость - горизонтальная дальность видимости в метрах или километрах. При видимости от 1 до 10 км при отсутствии осадков обычно наблюдается дымка, при ухудшении видимости до 1 км и менее - туман. В сухую погоду видимость может ухудшаться дымом, пылью или мглою.
Явления - указаны атмосферные явления, наблюдавшиеся в срок или в последний час перед сроком; фигурными скобками обозначены явления, наблюдавшиеся между сроками (за 1-3 часа до срока); квадратными скобками обозначены град или гололедные отложения с указанием их диаметра в мм.
Облачность - указаны через наклонную черту общая и нижняя облачность в баллах и высота нижней границы облаков в метрах; квадратными скобками обозначены формы облаков: Ci - перистые, Cs - перисто-слоистые, Cc - перисто-кучевые, Ac - высококучевые, As - высокослоистые, Sc - слоисто-кучевые, Ns - слоисто-дождевые, Cu - кучевые, Cb - кучево-дождевые. Подробнее классификацию облаков см. в Атласе облаков (PDF).
T - Температура воздуха - температура, измеренная на высоте 2 м над землей.
Td - Температура точки росы - температура, при понижении до которой содержащийся в воздухе водяной пар достигнет насыщения.
f - Относительная влажность воздуха - влажноcть воздуха, измеренная на высоте 2 м над землей.
Te - Эффективная температура - температура, которую ощущает одетый по сезону человек в тени. Характеристика душности погоды. При расчете учитывается влияние влажности воздуха и скорости ветра на теплоощущения человека.
Tes - Эффективная температура на солнце - температура, которую ощущает человек, с поправкой на солнечный нагрев. Характеристика знойности погоды. Зависит от высоты солнца над горизонтом, облачности и скорости ветра. Ночью, в пасмурную погоду, а также при ветре 12 м/с и более поправка равна нулю.
P - Атмосферное давление - приведенное к уровню моря атмосферное давление.
Po - Атмосферное давление - измеренное на уровне метеостанции атмосферное давление.
Tmin - Минимальная температура - минимум температуры воздуха на высоте 2 м над землей.
Tmax - Максимальная температура - максимум температуры воздуха на высоте 2 м над землей.
R - Количество осадков - Количество выпавших осадков за период времени, мм. При наведении курсора мыши на число - период времени, за который выпало указанное количество осадков.
R24 - Количество осадков - Количество выпавших осадков за 24 часа, мм.
S - Снежный покров - Высота снежного покрова, см. При наведении курсора мыши на число - состояние снежного покрова и степень покрытия местности в баллах.